EN

Hourly Weather La Huacana

Today, 24 July, Saturday

Time Temperature Precipitation Wind Pressure Humidity
00:00 +24°C° 0.1 mm 1 mps 715 mmHg 88%
01:00 +24°C° 0.1 mm 1 mps 715 mmHg 88%
02:00 +23°C° 0.1 mm 1 mps 714 mmHg 88%
03:00 +23°C° 0 mm 1 mps 714 mmHg 88%
04:00 +23°C° 0 mm 1 mps 714 mmHg 88%
05:00 +23°C° 0 mm 1 mps 715 mmHg 88%
06:00 +24°C° 0 mm 1 mps 715 mmHg 84%
07:00 +24°C° 0 mm 0 mps 715 mmHg 80%
08:00 +25°C° 0 mm 0 mps 716 mmHg 75%
09:00 +29°C° 0 mm 1 mps 716 mmHg 70%
10:00 +31°C° 0 mm 1 mps 716 mmHg 65%
11:00 +32°C° 0 mm 1 mps 715 mmHg 60%
12:00 +33°C° 0.1 mm 1 mps 715 mmHg 57%
13:00 +33°C° 0.1 mm 1 mps 714 mmHg 54%
14:00 +34°C° 0.1 mm 1 mps 714 mmHg 52%
15:00 +33°C° 0.1 mm 1 mps 713 mmHg 56%
16:00 +32°C° 0.1 mm 1 mps 713 mmHg 61%
17:00 +32°C° 0.1 mm 1 mps 712 mmHg 66%
18:00 +30°C° 0.3 mm 1 mps 713 mmHg 73%
19:00 +28°C° 0.3 mm 1 mps 713 mmHg 80%
20:00 +26°C° 0.3 mm 1 mps 713 mmHg 87%
21:00 +25°C° 0.3 mm 1 mps 713 mmHg 89%
22:00 +25°C° 0.3 mm 1 mps 714 mmHg 91%
23:00 +24°C° 0.3 mm 1 mps 714 mmHg 92%

Tomorrow, 25 July, Sunday

Time Temperature Precipitation Wind Pressure Humidity
00:00 +24°C° 0 mm 1 mps 713 mmHg 92%
01:00 +24°C° 0 mm 1 mps 713 mmHg 92%
02:00 +23°C° 0 mm 1 mps 713 mmHg 92%
03:00 +23°C° 0.1 mm 1 mps 713 mmHg 92%
04:00 +23°C° 0.1 mm 1 mps 713 mmHg 92%
05:00 +23°C° 0.1 mm 1 mps 713 mmHg 92%
06:00 +24°C° 0.1 mm 1 mps 713 mmHg 88%
07:00 +26°C° 0.1 mm 1 mps 714 mmHg 84%
08:00 +25°C° 0.1 mm 0 mps 714 mmHg 80%
09:00 +28°C° 0 mm 1 mps 714 mmHg 75%
10:00 +30°C° 0 mm 1 mps 714 mmHg 69%
11:00 +32°C° 0 mm 1 mps 714 mmHg 64%
12:00 +32°C° 0.3 mm 1 mps 713 mmHg 62%
13:00 +33°C° 0.3 mm 1 mps 712 mmHg 61%
14:00 +33°C° 0.3 mm 1 mps 712 mmHg 59%
15:00 +33°C° 0.2 mm 1 mps 711 mmHg 63%
16:00 +30°C° 0.2 mm 0 mps 711 mmHg 67%
17:00 +30°C° 0.2 mm 0 mps 710 mmHg 70%
18:00 +30°C° 0.8 mm 1 mps 711 mmHg 76%
19:00 +28°C° 0.8 mm 1 mps 711 mmHg 81%
20:00 +26°C° 0.8 mm 1 mps 712 mmHg 87%
21:00 +25°C° 0.7 mm 1 mps 712 mmHg 88%
22:00 +25°C° 0.7 mm 1 mps 712 mmHg 90%
23:00 +24°C° 0.7 mm 1 mps 712 mmHg 92%

Day after tomorrow, 26 July, Monday

Time Temperature Precipitation Wind Pressure Humidity
00:00 +24°C° 0.2 mm 1 mps 712 mmHg 91%
01:00 +24°C° 0.2 mm 1 mps 712 mmHg 91%
02:00 +24°C° 0.2 mm 1 mps 711 mmHg 90%
03:00 +24°C° 0.2 mm 1 mps 711 mmHg 90%
04:00 +23°C° 0.2 mm 1 mps 712 mmHg 90%
05:00 +23°C° 0.2 mm 1 mps 712 mmHg 89%
06:00 +24°C° 0.2 mm 1 mps 712 mmHg 86%
07:00 +24°C° 0.2 mm 0 mps 713 mmHg 84%
08:00 +25°C° 0.2 mm 0 mps 713 mmHg 81%
09:00 +26°C° 0.1 mm 0 mps 713 mmHg 75%
10:00 +30°C° 0.1 mm 1 mps 713 mmHg 70%
11:00 +32°C° 0.1 mm 1 mps 713 mmHg 65%
12:00 +32°C° 0.2 mm 1 mps 713 mmHg 62%
13:00 +33°C° 0.2 mm 1 mps 712 mmHg 60%
14:00 +33°C° 0.2 mm 1 mps 712 mmHg 57%
15:00 +32°C° 0.7 mm 1 mps 711 mmHg 64%
16:00 +31°C° 0.7 mm 1 mps 711 mmHg 71%
17:00 +30°C° 0.7 mm 1 mps 711 mmHg 78%
18:00 +28°C° 0.8 mm 1 mps 711 mmHg 83%
19:00 +26°C° 0.8 mm 1 mps 712 mmHg 88%
20:00 +25°C° 0.8 mm 1 mps 712 mmHg 93%
21:00 +24°C° 0.9 mm 1 mps 713 mmHg 93%
22:00 +24°C° 0.9 mm 1 mps 713 mmHg 92%
23:00 +24°C° 0.9 mm 1 mps 713 mmHg 92%

27 July, Tuesday

Time Temperature Precipitation Wind Pressure Humidity
00:00 +24°C° 0 mm 1 mps 713 mmHg 92%
01:00 +23°C° 0 mm 1 mps 712 mmHg 91%
02:00 +23°C° 0 mm 1 mps 712 mmHg 91%
03:00 +23°C° 0 mm 1 mps 712 mmHg 90%
04:00 +23°C° 0 mm 1 mps 712 mmHg 89%
05:00 +23°C° 0 mm 1 mps 712 mmHg 88%
06:00 +24°C° 0 mm 1 mps 713 mmHg 84%
07:00 +24°C° 0 mm 0 mps 713 mmHg 80%
08:00 +25°C° 0 mm 0 mps 714 mmHg 75%
09:00 +29°C° 0 mm 1 mps 714 mmHg 70%
10:00 +30°C° 0 mm 1 mps 714 mmHg 65%
11:00 +32°C° 0 mm 1 mps 714 mmHg 60%
12:00 +32°C° 0.2 mm 1 mps 713 mmHg 59%
13:00 +33°C° 0.2 mm 1 mps 712 mmHg 59%
14:00 +33°C° 0.2 mm 1 mps 712 mmHg 58%
15:00 +32°C° 0.5 mm 1 mps 712 mmHg 64%
16:00 +31°C° 0.5 mm 1 mps 711 mmHg 70%
17:00 +30°C° 0.5 mm 1 mps 711 mmHg 76%
18:00 +29°C° 1.9 mm 1 mps 712 mmHg 81%
19:00 +27°C° 1.9 mm 2 mps 712 mmHg 87%
20:00 +25°C° 1.9 mm 2 mps 712 mmHg 93%
21:00 +24°C° 2.1 mm 2 mps 713 mmHg 93%
22:00 +23°C° 2.1 mm 2 mps 713 mmHg 93%
23:00 +23°C° 2.1 mm 1 mps 713 mmHg 93%

28 July, Wednesday

Time Temperature Precipitation Wind Pressure Humidity
00:00 +23°C° 0 mm 1 mps 713 mmHg 92%
01:00 +23°C° 0 mm 1 mps 712 mmHg 91%
02:00 +22°C° 0 mm 1 mps 712 mmHg 90%
03:00 +22°C° 0 mm 1 mps 712 mmHg 90%
04:00 +22°C° 0 mm 1 mps 712 mmHg 89%
05:00 +22°C° 0 mm 1 mps 712 mmHg 88%
06:00 +23°C° 0 mm 1 mps 713 mmHg 83%
07:00 +23°C° 0 mm 0 mps 713 mmHg 79%
08:00 +25°C° 0 mm 0 mps 713 mmHg 74%
09:00 +26°C° 0 mm 0 mps 713 mmHg 69%
10:00 +30°C° 0 mm 1 mps 713 mmHg 64%
11:00 +31°C° 0 mm 1 mps 713 mmHg 59%
12:00 +32°C° 0.1 mm 1 mps 713 mmHg 58%
13:00 +33°C° 0.1 mm 1 mps 712 mmHg 57%
14:00 +33°C° 0.1 mm 1 mps 711 mmHg 56%
15:00 +32°C° 0.1 mm 1 mps 711 mmHg 61%
16:00 +32°C° 0.1 mm 1 mps 711 mmHg 66%
17:00 +31°C° 0.1 mm 1 mps 710 mmHg 71%
18:00 +29°C° 0.2 mm 1 mps 710 mmHg 76%
19:00 +28°C° 0.2 mm 1 mps 711 mmHg 82%
20:00 +26°C° 0.2 mm 1 mps 711 mmHg 87%
21:00 +26°C° 0.1 mm 1 mps 711 mmHg 89%
22:00 +25°C° 0.1 mm 1 mps 711 mmHg 91%
23:00 +25°C° 0.1 mm 1 mps 711 mmHg 93%

29 July, Thursday

Time Temperature Precipitation Wind Pressure Humidity
00:00 +24°C° 0.2 mm 1 mps 711 mmHg 93%
01:00 +24°C° 0.2 mm 1 mps 711 mmHg 94%
02:00 +24°C° 0.2 mm 1 mps 711 mmHg 95%
03:00 +24°C° 0.1 mm 1 mps 711 mmHg 94%
04:00 +24°C° 0.1 mm 1 mps 711 mmHg 94%
05:00 +23°C° 0.1 mm 1 mps 711 mmHg 94%
06:00 +25°C° 0.4 mm 1 mps 711 mmHg 90%
07:00 +24°C° 0.4 mm 0 mps 712 mmHg 87%
08:00 +25°C° 0.4 mm 0 mps 712 mmHg 83%
09:00 +28°C° 0.6 mm 1 mps 712 mmHg 78%
10:00 +30°C° 0.6 mm 1 mps 712 mmHg 74%
11:00 +31°C° 0.6 mm 1 mps 712 mmHg 69%
12:00 +32°C° 0.2 mm 1 mps 711 mmHg 65%
13:00 +33°C° 0.2 mm 1 mps 711 mmHg 61%
14:00 +33°C° 0.2 mm 1 mps 710 mmHg 57%
15:00 +32°C° 0.4 mm 1 mps 710 mmHg 64%
16:00 +31°C° 0.4 mm 1 mps 710 mmHg 72%
17:00 +30°C° 0.4 mm 1 mps 710 mmHg 79%
18:00 +28°C° 1 mm 1 mps 710 mmHg 84%
19:00 +27°C° 1 mm 1 mps 711 mmHg 89%
20:00 +25°C° 1 mm 1 mps 711 mmHg 95%
21:00 +25°C° 0.8 mm 1 mps 712 mmHg 95%
22:00 +24°C° 0.8 mm 1 mps 712 mmHg 95%
23:00 +24°C° 0.8 mm 1 mps 712 mmHg 96%
Show more